Tracking 17925 objects as of 22-January-2017
HD Live streaming from Space Station
objects crossing your sky now

SL-3 DEB

Track SL-3 DEB now!
10-day predictions


NORAD ID: 14928
Int'l Code: 1983-075F
Perigee: 514.8 km
Apogee: 560.1 km
Inclination: 97.9 °
Period: 95.2 minutes
Semi major axis: 6908 km
RCS: 0.0341 m2 (small)
Launch date: July 24, 1983
Source: Commonwealth of Independent States (former USSR) (CIS)
Launch site: TYURATAM MISSILE AND SPACE COMPLEX (TTMTR)

Note: This is SATELLITE DEBRIS
Your satellite tracking list
Your tracking list is empty





NASA's NSSDC Master Catalog

Two Line Element Set (TLE):
1 14928U 83075F   17020.86317059 +.00000320 +00000-0 +22653-4 0  9993
2 14928 097.8640 165.6930 0032787 003.1874 154.0768 15.11920259797829
Source of the keplerian elements: AFSPC